Flag for U.S.A. Weather past 2 weeks in Farmington, New Mexico, U.S.A.

Now
48 °F

Sunny.


Feels Like: 41 °F
Forecast: 25 / 45 °F
Wind: 21 mph from West

Location: Four Corners Regional Airport

Current Time: Feb 1, 2015 at 3:51:16 PM

Latest Report: Feb 1, 2015 at 3:00 PM


Visibility: 10 mi

Pressure: 30.09 "Hg

Humidity: 50%

Dew point: 30 °F

Location of FarmingtonLocation

Historic Weather in Farmington — Graph

°F

Farmington temperature yesterday

Maximum temperature yesterday: 39 °F (at 3:53 PM)
Minimum temperature yesterday: 32 °F (at 1:53 AM)
Average temperature yesterday: 35 °F

Past Weeks' High & Low Weather Summary

 TemperatureHumidityPressure
High59 °F (Jan 27, 2:53 PM)100% (Feb 1, 6:53 AM)30.52 "Hg (Feb 1, 6:53 AM)
Low15 °F (Jan 23, 6:53 AM)28% (Jan 26, 1:53 PM)29.90 "Hg (Jan 31, 9:01 AM)
Average34 °F69%30.26 "Hg
* Reported Jan 17 3:53 PM — Feb 1 3:00 PM, Farmington, Weather by CustomWeather, © 2014

Note: Actual official high and low records may vary slightly from our data, if they occured in-between our weather recording intervals... More about our weather records

Advertising

Farmington weather history for previous 24 hours

 ConditionsComfort  
Time TempWeatherWind HumidityBarometerVisibility
3:00 PM
Feb 1
48 °FSunny.21 mph50%30.09 "Hg10 mi
1:53 PM44 °FScattered clouds.3 mph65%30.13 "Hg10 mi
12:53 PM40 °FSunny.No wind68%30.16 "Hg10 mi
11:53 AM38 °FSunny.3 mph70%30.19 "Hg10 mi
10:53 AM32 °FScattered clouds.No wind92%30.21 "Hg10 mi
9:53 AM31 °FOvercast.No wind96%30.19 "Hg9 mi
8:57 AM30 °FIce fog.No wind100%30.13 "Hg1 mi
7:53 AM30 °FIce fog.No wind96%30.14 "Hg0 mi
7:02 AM30 °FIce fog.5 mph96%30.08 "Hg1 mi
6:53 AM29 °FIce fog.6 mph100%30.11 "Hg0 mi
6:03 AM30 °FIce fog.5 mph96%30.05 "Hg0 mi
5:53 AM30 °FIce fog.6 mph96%30.09 "Hg1 mi
5:02 AM28 °FIce fog.No wind96%30.03 "Hg0 mi
4:53 AM28 °FIce fog.3 mph93%30.07 "Hg1 mi
3:53 AM27 °FIce fog.3 mph96%30.05 "Hg0 mi
2:53 AM29 °FClear.6 mph93%30.04 "Hg10 mi
1:53 AM32 °FClear.8 mph92%30.02 "Hg10 mi
12:53 AM31 °FClear.7 mph96%30.02 "Hg10 mi
11:53 PM
Jan 31
32 °FClear.7 mph96%30.02 "Hg10 mi
10:53 PM33 °FPassing clouds.8 mph92%30.00 "Hg10 mi
9:53 PM34 °FClear.9 mph92%29.98 "Hg10 mi
8:53 PM36 °FPassing clouds.12 mph89%29.96 "Hg10 mi
8:03 PM37 °FOvercast.13 mph89%29.93 "Hg10 mi
6:53 PM38 °FMostly cloudy.12 mph90%29.93 "Hg10 mi
5:53 PM38 °FOvercast.10 mph90%29.93 "Hg10 mi
4:53 PM38 °FMore clouds than sun.13 mph90%29.91 "Hg10 mi
3:53 PM39 °FOvercast.13 mph86%29.91 "Hg10 mi
Weather by CustomWeather, © 2014

See weather overviewHow to use our weather pages